Location: Unspecified
(0.0000°N, 0.0000°E)
Time: 08:26:32
(UTC+00:00)

deb Explorer IX - All Passes

Search period start: 24 October 2014 00:00
Search period end: 03 November 2014 00:00
Orbit: 559 x 1207 km, 38.8° (Epoch: 22 October)

Date Brightness Start Highest point End Pass type
(mag) Time Alt. Az. Time Alt. Az. Time Alt. Az.
24 Oct - 00:44:30 10° SW 00:52:23 72° NW 00:59:40 10° NE night (unlit)
24 Oct - 02:37:16 10° WNW 02:41:12 15° NW 02:44:56 10° N night (unlit)
24 Oct - 11:51:08 10° NNW 11:55:06 45° NE 11:59:16 10° ESE daylight
24 Oct - 13:40:30 10° WSW 13:43:15 16° SW 13:46:11 10° S daylight
24 Oct - 22:52:18 10° SSW 22:59:18 35° SE 23:06:12 10° ENE night (unlit)
25 Oct - 00:40:33 10° WSW 00:48:15 56° NW 00:55:26 10° NE night (unlit)
25 Oct - 02:35:26 10° NW 02:37:13 11° NW 02:38:58 10° NNW night (unlit)
25 Oct - 11:46:57 10° NW 11:51:04 73° NE 11:55:22 10° SE daylight
25 Oct - 13:38:20 10° SW 13:39:20 11° SW 13:40:22 10° SSW daylight
25 Oct - 22:47:45 10° SSW 22:55:08 45° SE 23:02:28 10° ENE night (unlit)
26 Oct - 00:36:40 10° WSW 00:44:02 43° NW 00:51:00 10° NNE night (unlit)
26 Oct - 11:42:51 10° NW 11:46:58 70° SW 11:51:13 10° SE daylight
26 Oct - 20:58:35 10° SSE 21:01:39 13° SE 21:04:47 10° ESE visible
26 Oct - 22:43:15 10° SW 22:50:51 59° SE 22:58:29 10° ENE night (unlit)
27 Oct - 00:32:51 10° WSW 00:39:45 33° NW 00:46:22 10° NNE night (unlit)
27 Oct - 09:52:12 10° N 09:54:46 15° NE 09:57:16 10° ENE daylight
27 Oct - 11:38:50 10° WNW 11:42:47 43° SW 11:46:49 10° SSE daylight
27 Oct - 20:52:55 10° S 20:57:27 17° SE 21:02:07 10° ESE visible
27 Oct - 22:38:46 10° SW 22:46:28 75° SE 22:54:16 10° NE night (unlit)
28 Oct - 00:29:09 10° W 00:35:25 26° NW 00:41:30 10° NNE night (unlit)
28 Oct - 09:47:05 10° NNW 09:50:34 23° NE 09:53:53 10° E daylight
28 Oct - 11:34:56 10° W 11:38:31 28° SW 11:42:09 10° SSE daylight
28 Oct - 20:47:40 10° S 20:53:06 22° SE 20:58:48 10° E visible
28 Oct - 22:34:19 10° SW 22:41:59 86° NW 22:49:51 10° NE night (unlit)
29 Oct - 00:25:37 10° W 00:31:02 20° NW 00:36:22 10° N night (unlit)
29 Oct - 09:42:12 10° NNW 09:46:15 35° NE 09:50:03 10° ESE daylight
29 Oct - 11:31:13 10° W 11:34:11 19° SW 11:37:10 10° S daylight
29 Oct - 20:42:34 10° SSW 20:48:37 28° SE 20:55:04 10° E visible
29 Oct - 22:29:54 10° WSW 22:37:26 68° NW 22:45:14 10° NE night (unlit)
30 Oct - 00:22:23 10° WNW 00:26:38 15° NW 00:30:50 10° N night (unlit)
30 Oct - 09:37:26 10° NW 09:41:50 55° NE 09:45:54 10° ESE daylight
30 Oct - 11:27:57 10° WSW 11:29:47 13° SW 11:31:36 10° SSW daylight
30 Oct - 20:37:34 10° SSW 20:44:01 36° SE 20:51:00 10° ENE visible
30 Oct - 22:25:31 10° WSW 22:32:49 52° NW 22:40:25 10° NE night (unlit)
31 Oct - 00:19:52 10° NW 00:22:12 11° NW 00:24:31 10° NNW night (unlit)
31 Oct - 09:32:44 10° NW 09:37:19 86° NE 09:41:29 10° SE daylight
31 Oct - 20:32:36 10° SSW 20:39:18 47° SE 20:46:40 10° ENE visible
31 Oct - 22:21:12 10° WSW 22:28:08 41° NW 22:35:24 10° NNE night (unlit)
01 Nov - 07:41:43 10° N 07:44:24 14° NE 07:46:53 10° ENE daylight
01 Nov - 09:28:07 10° WNW 09:32:41 61° SW 09:36:50 10° SE daylight
01 Nov - 18:44:04 10° SSE 18:45:50 11° SE 18:47:39 10° SE visible
01 Nov - 20:27:41 10° SW 20:34:30 61° SE 20:42:07 10° ENE visible
01 Nov - 22:16:58 10° W 22:23:24 32° NW 22:30:10 10° NNE night (unlit)
02 Nov - 07:35:58 10° NNW 07:39:49 21° NE 07:43:17 10° E daylight
02 Nov - 09:23:35 10° WNW 09:27:58 40° SW 09:31:57 10° SSE daylight
02 Nov - 18:37:34 10° S 18:41:05 15° SE 18:44:50 10° ESE visible
02 Nov - 20:22:47 10° SW 20:29:37 78° SE 20:37:20 10° NE visible
02 Nov - 22:12:50 10° W 22:18:38 24° NW 22:24:43 10° NNE night (unlit)
